Regional Weather Roundup
Issued by NWS

Home | Current Version | Previous Version | Graphics & Text | Print | Product List | Glossary On
Versions: 1 2 3 4 5 6 7 8 9 10 11 12 13 14 15 16 17 18 19 20 21 22 23 24 25 26 27 28 29 30 31 32 33 34 35 36 37 38 39 40 41 42 43 44 45 46 47 48 49 50
000
ASUS43 KBIS 201759
RWRND

NORTH DAKOTA REGIONAL WEATHER ROUNDUP
NATIONAL WEATHER SERVICE BISMARCK ND
1200 PM CST THU NOV 20 2014

NOTE: "FAIR" INDICATES FEW OR NO CLOUDS BELOW 12,000 FEET WITH NO
SIGNIFICANT WEATHER AND/OR OBSTRUCTIONS TO VISIBILITY.


NDZ001>003-009>011-017-201900-
NORTHWEST NORTH DAKOTA

CITY           SKY/WX    TMP DP  RH WIND       PRES   REMARKS
WILLISTON      MOSUNNY   18   8  65 S10       29.99F WCI   6
6HR MIN TEMP:  10; 6HR MAX TEMP:  18; 6HR PCP: TRACE;

MINOT          MOSUNNY   18   7  62 S9        30.04F WCI   7
$$

NDZ018>021-031>035-040>046-201900-
SOUTHWEST NORTH DAKOTA

CITY           SKY/WX    TMP DP  RH WIND       PRES   REMARKS
BISMARCK       MOSUNNY   20   8  60 SW6       30.11S WCI  12
6HR MIN TEMP:  14; 6HR MAX TEMP:  20; 6HR PCP: TRACE;

GARRISON         N/A     18  14  84 S5        30.04F WCI  11
6HR MIN TEMP:  10; 6HR MAX TEMP:  18;

HETTINGER ARPT CLOUDY    19  16  88 S9        30.01F WCI   8
$$

NDZ004>008-012>016-024-026-027-054-201900-
NORTHEAST NORTH DAKOTA

CITY           SKY/WX    TMP DP  RH WIND       PRES   REMARKS
GRAND FORKS    MOSUNNY   16   3  56 NW7       30.15F WCI   6
DEVILS LAKE    SUNNY     16   1  53 SW7       30.08S WCI   6
$$

NDZ022-023-025-028>030-036>039-047>053-201900-
SOUTHEAST NORTH DAKOTA

CITY           SKY/WX    TMP DP  RH WIND       PRES   REMARKS
FARGO          SUNNY     18   3  52 NW7       30.16F WCI   9
6HR MIN TEMP:   2; 6HR MAX TEMP:  18;

$$




USA.gov is the U.S. government's official web portal to all federal, state and local government web resources and services.